Year,Month,Day,Hour,Minute,Value (Times are PST for insolation in W/m^2)
2013,09,30,00,00,0.00
2013,09,30,00,01,0.00
2013,09,30,00,02,0.00
2013,09,30,00,03,0.00
2013,09,30,00,04,0.00
2013,09,30,00,05,0.00
2013,09,30,00,06,0.00
2013,09,30,00,07,0.00
2013,09,30,00,08,0.00
2013,09,30,00,09,0.00
2013,09,30,00,10,0.00
2013,09,30,00,11,0.00
2013,09,30,00,12,0.00
2013,09,30,00,13,0.00
2013,09,30,00,14,0.00
2013,09,30,00,15,0.00
2013,09,30,00,16,0.00
2013,09,30,00,17,0.00
2013,09,30,00,18,0.00
2013,09,30,00,19,0.00
2013,09,30,00,20,0.00
2013,09,30,00,21,0.00
2013,09,30,00,22,0.00
2013,09,30,00,23,0.00
2013,09,30,00,24,0.00
2013,09,30,00,25,0.00
2013,09,30,00,26,0.00
2013,09,30,00,27,0.00
2013,09,30,00,28,0.00
2013,09,30,00,29,0.00
2013,09,30,00,30,0.00
2013,09,30,00,31,0.00
2013,09,30,00,32,0.00
2013,09,30,00,33,0.00
2013,09,30,00,34,0.00
2013,09,30,00,35,0.00
2013,09,30,00,36,0.00
2013,09,30,00,37,0.00
2013,09,30,00,38,0.00
2013,09,30,00,39,0.00
2013,09,30,00,40,0.00
2013,09,30,00,41,0.00
2013,09,30,00,42,0.00
2013,09,30,00,43,0.00
2013,09,30,00,44,0.00
2013,09,30,00,45,0.00
2013,09,30,00,46,0.00
2013,09,30,00,47,0.00
2013,09,30,00,48,0.00
2013,09,30,00,49,0.00
2013,09,30,00,50,0.00
2013,09,30,00,51,0.00
2013,09,30,00,52,0.00
2013,09,30,00,53,0.00
2013,09,30,00,54,0.00
2013,09,30,00,55,0.00
2013,09,30,00,56,0.00
2013,09,30,00,57,0.00
2013,09,30,00,58,0.00
2013,09,30,00,59,0.00
2013,09,30,01,00,0.00
2013,09,30,01,01,0.00
2013,09,30,01,02,0.00
2013,09,30,01,03,0.00
2013,09,30,01,04,0.00
2013,09,30,01,05,0.00
2013,09,30,01,06,0.00
2013,09,30,01,07,0.00
2013,09,30,01,08,0.00
2013,09,30,01,09,0.00
2013,09,30,01,10,0.00
2013,09,30,01,11,0.00
2013,09,30,01,12,0.00
2013,09,30,01,13,0.00
2013,09,30,01,14,0.00
2013,09,30,01,15,0.00
2013,09,30,01,16,0.00
2013,09,30,01,17,0.00
2013,09,30,01,18,0.00
2013,09,30,01,19,0.00
2013,09,30,01,20,0.00
2013,09,30,01,21,0.00
2013,09,30,01,22,0.00
2013,09,30,01,23,0.00
2013,09,30,01,24,0.00
2013,09,30,01,25,0.00
2013,09,30,01,26,0.00
2013,09,30,01,27,0.00
2013,09,30,01,28,0.00
2013,09,30,01,29,0.00
2013,09,30,01,30,0.00
2013,09,30,01,31,0.00
2013,09,30,01,32,0.00
2013,09,30,01,33,0.00
2013,09,30,01,34,0.00
2013,09,30,01,35,0.00
2013,09,30,01,36,0.00
2013,09,30,01,37,0.00
2013,09,30,01,38,0.00
2013,09,30,01,39,0.00
2013,09,30,01,40,0.00
2013,09,30,01,41,0.00
2013,09,30,01,42,0.00
2013,09,30,01,43,0.00
2013,09,30,01,44,0.00
2013,09,30,01,45,0.00
2013,09,30,01,46,0.00
2013,09,30,01,47,0.00
2013,09,30,01,48,0.00
2013,09,30,01,49,0.00
2013,09,30,01,50,0.00
2013,09,30,01,51,0.00
2013,09,30,01,52,0.00
2013,09,30,01,53,0.00
2013,09,30,01,54,0.00
2013,09,30,01,55,0.00
2013,09,30,01,56,0.00
2013,09,30,01,57,0.00
2013,09,30,01,58,0.00
2013,09,30,01,59,0.00
2013,09,30,02,00,0.00
2013,09,30,02,01,0.00
2013,09,30,02,02,0.00
2013,09,30,02,03,0.00
2013,09,30,02,04,0.00
2013,09,30,02,05,0.00
2013,09,30,02,06,0.00
2013,09,30,02,07,0.00
2013,09,30,02,08,0.00
2013,09,30,02,09,0.00
2013,09,30,02,10,0.00
2013,09,30,02,11,0.00
2013,09,30,02,12,0.00
2013,09,30,02,13,0.00
2013,09,30,02,14,0.00
2013,09,30,02,15,0.00
2013,09,30,02,16,0.00
2013,09,30,02,17,0.00
2013,09,30,02,18,0.00
2013,09,30,02,19,0.00
2013,09,30,02,20,0.00
2013,09,30,02,21,0.00
2013,09,30,02,22,0.00
2013,09,30,02,23,0.00
2013,09,30,02,24,0.00
2013,09,30,02,25,0.00
2013,09,30,02,26,0.00
2013,09,30,02,27,0.00
2013,09,30,02,28,0.00
2013,09,30,02,29,0.00
2013,09,30,02,30,0.00
2013,09,30,02,31,0.00
2013,09,30,02,32,0.00
2013,09,30,02,33,0.00
2013,09,30,02,34,0.00
2013,09,30,02,35,0.00
2013,09,30,02,36,0.00
2013,09,30,02,37,0.00
2013,09,30,02,38,0.00
2013,09,30,02,39,0.00
2013,09,30,02,40,0.00
2013,09,30,02,41,0.00
2013,09,30,02,42,0.00
2013,09,30,02,43,0.00
2013,09,30,02,44,0.00
2013,09,30,02,45,0.00
2013,09,30,02,46,0.00
2013,09,30,02,47,0.00
2013,09,30,02,48,0.00
2013,09,30,02,49,0.00
2013,09,30,02,50,0.00
2013,09,30,02,51,0.00
2013,09,30,02,52,0.00
2013,09,30,02,53,0.00
2013,09,30,02,54,0.00
2013,09,30,02,55,0.00
2013,09,30,02,56,0.00
2013,09,30,02,57,0.00
2013,09,30,02,58,0.00
2013,09,30,02,59,0.00
2013,09,30,03,00,0.00
2013,09,30,03,01,0.00
2013,09,30,03,02,0.00
2013,09,30,03,03,0.00
2013,09,30,03,04,0.00
2013,09,30,03,05,0.00
2013,09,30,03,06,0.00
2013,09,30,03,07,0.00
2013,09,30,03,08,0.00
2013,09,30,03,09,0.00
2013,09,30,03,10,0.00
2013,09,30,03,11,0.00
2013,09,30,03,12,0.00
2013,09,30,03,13,0.00
2013,09,30,03,14,0.00
2013,09,30,03,15,0.00
2013,09,30,03,16,0.00
2013,09,30,03,17,0.00
2013,09,30,03,18,0.00
2013,09,30,03,19,0.00
2013,09,30,03,20,0.00
2013,09,30,03,21,0.00
2013,09,30,03,22,0.00
2013,09,30,03,23,0.00
2013,09,30,03,24,0.00
2013,09,30,03,25,0.00
2013,09,30,03,26,0.00
2013,09,30,03,27,0.00
2013,09,30,03,28,0.00
2013,09,30,03,29,0.00
2013,09,30,03,30,0.00
2013,09,30,03,31,0.00
2013,09,30,03,32,0.00
2013,09,30,03,33,0.00
2013,09,30,03,34,0.00
2013,09,30,03,35,0.00
2013,09,30,03,36,0.00
2013,09,30,03,37,0.00
2013,09,30,03,38,0.00
2013,09,30,03,39,0.00
2013,09,30,03,40,0.00
2013,09,30,03,41,0.00
2013,09,30,03,42,0.00
2013,09,30,03,43,0.00
2013,09,30,03,44,0.00
2013,09,30,03,45,0.00
2013,09,30,03,46,0.00
2013,09,30,03,47,0.00
2013,09,30,03,48,0.00
2013,09,30,03,49,0.00
2013,09,30,03,50,0.00
2013,09,30,03,51,0.00
2013,09,30,03,52,0.00
2013,09,30,03,53,0.00
2013,09,30,03,54,0.00
2013,09,30,03,55,0.00
2013,09,30,03,56,0.00
2013,09,30,03,57,0.00
2013,09,30,03,58,0.00
2013,09,30,03,59,0.00
2013,09,30,04,00,0.00
2013,09,30,04,01,0.00
2013,09,30,04,02,0.00
2013,09,30,04,03,0.00
2013,09,30,04,04,0.00
2013,09,30,04,05,0.00
2013,09,30,04,06,0.00
2013,09,30,04,07,0.00
2013,09,30,04,08,0.00
2013,09,30,04,09,0.00
2013,09,30,04,10,0.00
2013,09,30,04,11,0.00
2013,09,30,04,12,0.00
2013,09,30,04,13,0.00
2013,09,30,04,14,0.00
2013,09,30,04,15,0.00
2013,09,30,04,16,0.00
2013,09,30,04,17,0.00
2013,09,30,04,18,0.00
2013,09,30,04,19,0.00
2013,09,30,04,20,0.00
2013,09,30,04,21,0.00
2013,09,30,04,22,0.00
2013,09,30,04,23,0.00
2013,09,30,04,24,0.00
2013,09,30,04,25,0.00
2013,09,30,04,26,0.00
2013,09,30,04,27,0.00
2013,09,30,04,28,0.00
2013,09,30,04,29,0.00
2013,09,30,04,30,0.00
2013,09,30,04,31,0.00
2013,09,30,04,32,0.00
2013,09,30,04,33,0.00
2013,09,30,04,34,0.00
2013,09,30,04,35,0.00
2013,09,30,04,36,0.00
2013,09,30,04,37,0.00
2013,09,30,04,38,0.00
2013,09,30,04,39,0.00
2013,09,30,04,40,0.00
2013,09,30,04,41,0.00
2013,09,30,04,42,0.00
2013,09,30,04,43,0.00
2013,09,30,04,44,0.00
2013,09,30,04,45,0.00
2013,09,30,04,46,0.00
2013,09,30,04,47,0.00
2013,09,30,04,48,0.00
2013,09,30,04,49,0.00
2013,09,30,04,50,0.00
2013,09,30,04,51,0.00
2013,09,30,04,52,0.00
2013,09,30,04,53,0.00
2013,09,30,04,54,0.00
2013,09,30,04,55,0.00
2013,09,30,04,56,0.00
2013,09,30,04,57,0.00
2013,09,30,04,58,0.00
2013,09,30,04,59,0.00
2013,09,30,05,00,0.00
2013,09,30,05,01,0.00
2013,09,30,05,02,0.00
2013,09,30,05,03,0.00
2013,09,30,05,04,0.00
2013,09,30,05,05,0.00
2013,09,30,05,06,0.00
2013,09,30,05,07,0.00
2013,09,30,05,08,0.00
2013,09,30,05,09,0.00
2013,09,30,05,10,0.00
2013,09,30,05,11,0.00
2013,09,30,05,12,0.00
2013,09,30,05,13,0.00
2013,09,30,05,14,0.00
2013,09,30,05,15,0.00
2013,09,30,05,16,0.00
2013,09,30,05,17,0.00
2013,09,30,05,18,0.00
2013,09,30,05,19,0.00
2013,09,30,05,20,0.00
2013,09,30,05,21,0.00
2013,09,30,05,22,0.00
2013,09,30,05,23,0.00
2013,09,30,05,24,0.00
2013,09,30,05,25,0.00
2013,09,30,05,26,0.00
2013,09,30,05,27,0.00
2013,09,30,05,28,0.00
2013,09,30,05,29,0.00
2013,09,30,05,30,0.00
2013,09,30,05,31,0.00
2013,09,30,05,32,0.00
2013,09,30,05,33,0.00
2013,09,30,05,34,0.00
2013,09,30,05,35,0.00
2013,09,30,05,36,0.00
2013,09,30,05,37,0.00
2013,09,30,05,38,0.00
2013,09,30,05,39,0.00
2013,09,30,05,40,0.00
2013,09,30,05,41,0.00
2013,09,30,05,42,0.00
2013,09,30,05,43,0.00
2013,09,30,05,44,0.00
2013,09,30,05,45,0.00
2013,09,30,05,46,0.00
2013,09,30,05,47,0.00
2013,09,30,05,48,0.00
2013,09,30,05,49,0.00
2013,09,30,05,50,0.00
2013,09,30,05,51,0.00
2013,09,30,05,52,0.00
2013,09,30,05,53,0.00
2013,09,30,05,54,0.00
2013,09,30,05,55,0.00
2013,09,30,05,56,0.00
2013,09,30,05,57,0.00
2013,09,30,05,58,0.00
2013,09,30,05,59,0.00
2013,09,30,06,00,0.00
2013,09,30,06,01,0.00
2013,09,30,06,02,0.00
2013,09,30,06,03,0.00
2013,09,30,06,04,0.00
2013,09,30,06,05,0.00
2013,09,30,06,06,0.00
2013,09,30,06,07,0.00
2013,09,30,06,08,0.00
2013,09,30,06,09,0.00
2013,09,30,06,10,0.00
2013,09,30,06,11,0.00
2013,09,30,06,12,0.00
2013,09,30,06,13,0.00
2013,09,30,06,14,0.00
2013,09,30,06,15,0.00
2013,09,30,06,16,0.00
2013,09,30,06,17,0.00
2013,09,30,06,18,0.00
2013,09,30,06,19,0.00
2013,09,30,06,20,0.00
2013,09,30,06,21,0.00
2013,09,30,06,22,0.00
2013,09,30,06,23,0.00
2013,09,30,06,24,0.00
2013,09,30,06,25,0.00
2013,09,30,06,26,0.00
2013,09,30,06,27,0.00
2013,09,30,06,28,0.00
2013,09,30,06,29,0.00
2013,09,30,06,30,0.00
2013,09,30,06,31,0.00
2013,09,30,06,32,0.00
2013,09,30,06,33,0.00
2013,09,30,06,34,0.00
2013,09,30,06,35,0.00
2013,09,30,06,36,0.00
2013,09,30,06,37,0.00
2013,09,30,06,38,0.00
2013,09,30,06,39,0.00
2013,09,30,06,40,0.00
2013,09,30,06,41,0.00
2013,09,30,06,42,0.00
2013,09,30,06,43,0.00
2013,09,30,06,44,0.00
2013,09,30,06,45,0.00
2013,09,30,06,46,0.00
2013,09,30,06,47,0.00
2013,09,30,06,48,0.00
2013,09,30,06,49,0.00
2013,09,30,06,50,0.00
2013,09,30,06,51,0.00
2013,09,30,06,52,0.00
2013,09,30,06,53,0.00
2013,09,30,06,54,0.00
2013,09,30,06,55,0.00
2013,09,30,06,56,0.00
2013,09,30,06,57,0.00
2013,09,30,06,58,0.00
2013,09,30,06,59,0.00
2013,09,30,07,00,0.00
2013,09,30,07,01,0.00
2013,09,30,07,02,0.00
2013,09,30,07,03,0.00
2013,09,30,07,04,0.00
2013,09,30,07,05,0.00
2013,09,30,07,06,0.00
2013,09,30,07,07,0.00
2013,09,30,07,08,0.00
2013,09,30,07,09,0.00
2013,09,30,07,10,0.00
2013,09,30,07,11,0.00
2013,09,30,07,12,0.00
2013,09,30,07,13,0.00
2013,09,30,07,14,0.00
2013,09,30,07,15,0.00
2013,09,30,07,16,0.00
2013,09,30,07,17,0.00
2013,09,30,07,18,0.00
2013,09,30,07,19,0.00
2013,09,30,07,20,0.00
2013,09,30,07,21,0.00
2013,09,30,07,22,0.00
2013,09,30,07,23,0.00
2013,09,30,07,24,0.00
2013,09,30,07,25,0.00
2013,09,30,07,26,0.00
2013,09,30,07,27,0.00
2013,09,30,07,28,0.00
2013,09,30,07,29,0.00
2013,09,30,07,30,0.00
2013,09,30,07,31,0.00
2013,09,30,07,32,0.00
2013,09,30,07,33,0.00
2013,09,30,07,34,0.00
2013,09,30,07,35,0.00
2013,09,30,07,36,0.00
2013,09,30,07,37,0.00
2013,09,30,07,38,0.00
2013,09,30,07,39,0.00
2013,09,30,07,40,0.00
2013,09,30,07,41,0.00
2013,09,30,07,42,0.00
2013,09,30,07,43,0.00
2013,09,30,07,44,0.00
2013,09,30,07,45,0.00
2013,09,30,07,46,0.00
2013,09,30,07,47,0.00
2013,09,30,07,48,0.00
2013,09,30,07,49,0.00
2013,09,30,07,50,0.00
2013,09,30,07,51,0.00
2013,09,30,07,52,0.00
2013,09,30,07,53,0.00
2013,09,30,07,54,0.00
2013,09,30,07,55,0.00
2013,09,30,07,56,0.00
2013,09,30,07,57,0.00
2013,09,30,07,58,0.00
2013,09,30,07,59,0.00
2013,09,30,08,00,3.20
2013,09,30,08,01,6.50
2013,09,30,08,02,8.70
2013,09,30,08,03,10.90
2013,09,30,08,04,12.30
2013,09,30,08,05,14.00
2013,09,30,08,06,14.00
2013,09,30,08,07,14.00
2013,09,30,08,08,15.10
2013,09,30,08,09,16.00
2013,09,30,08,10,17.50
2013,09,30,08,11,18.00
2013,09,30,08,12,18.00
2013,09,30,08,13,18.20
2013,09,30,08,14,19.00
2013,09,30,08,15,19.00
2013,09,30,08,16,18.50
2013,09,30,08,17,16.80
2013,09,30,08,18,14.60
2013,09,30,08,19,14.00
2013,09,30,08,20,15.80
2013,09,30,08,21,16.40
2013,09,30,08,22,19.50
2013,09,30,08,23,21.70
2013,09,30,08,24,23.90
2013,09,30,08,25,25.60
2013,09,30,08,26,28.50
2013,09,30,08,27,32.10
2013,09,30,08,28,38.10
2013,09,30,08,29,44.00
2013,09,30,08,30,50.20
2013,09,30,08,31,57.10
2013,09,30,08,32,60.00
2013,09,30,08,33,60.00
2013,09,30,08,34,58.90
2013,09,30,08,35,55.20
2013,09,30,08,36,48.30
2013,09,30,08,37,39.70
2013,09,30,08,38,32.70
2013,09,30,08,39,30.00
2013,09,30,08,40,30.60
2013,09,30,08,41,33.20
2013,09,30,08,42,36.10
2013,09,30,08,43,37.00
2013,09,30,08,44,37.00
2013,09,30,08,45,37.00
2013,09,30,08,46,38.80
2013,09,30,08,47,36.70
2013,09,30,08,48,34.50
2013,09,30,08,49,32.60
2013,09,30,08,50,31.10
2013,09,30,08,51,28.90
2013,09,30,08,52,28.00
2013,09,30,08,53,28.00
2013,09,30,08,54,29.70
2013,09,30,08,55,29.80
2013,09,30,08,56,27.60
2013,09,30,08,57,25.10
2013,09,30,08,58,22.20
2013,09,30,08,59,20.00
2013,09,30,09,00,18.40
2013,09,30,09,01,18.00
2013,09,30,09,02,16.30
2013,09,30,09,03,16.00
2013,09,30,09,04,16.00
2013,09,30,09,05,16.00
2013,09,30,09,06,16.00
2013,09,30,09,07,16.00
2013,09,30,09,08,16.00
2013,09,30,09,09,16.00
2013,09,30,09,10,14.50
2013,09,30,09,11,14.00
2013,09,30,09,12,14.00
2013,09,30,09,13,13.60
2013,09,30,09,14,12.00
2013,09,30,09,15,11.60
2013,09,30,09,16,11.00
2013,09,30,09,17,11.00
2013,09,30,09,18,11.00
2013,09,30,09,19,11.00
2013,09,30,09,20,11.00
2013,09,30,09,21,12.00
2013,09,30,09,22,12.00
2013,09,30,09,23,12.60
2013,09,30,09,24,14.80
2013,09,30,09,25,17.00
2013,09,30,09,26,21.20
2013,09,30,09,27,28.10
2013,09,30,09,28,34.10
2013,09,30,09,29,39.90
2013,09,30,09,30,41.70
2013,09,30,09,31,39.20
2013,09,30,09,32,37.00
2013,09,30,09,33,37.00
2013,09,30,09,34,37.00
2013,09,30,09,35,37.00
2013,09,30,09,36,39.30
2013,09,30,09,37,43.40
2013,09,30,09,38,43.50
2013,09,30,09,39,37.70
2013,09,30,09,40,30.10
2013,09,30,09,41,22.10
2013,09,30,09,42,16.00
2013,09,30,09,43,12.90
2013,09,30,09,44,11.30
2013,09,30,09,45,9.40
2013,09,30,09,46,9.00
2013,09,30,09,47,9.00
2013,09,30,09,48,9.00
2013,09,30,09,49,9.70
2013,09,30,09,50,11.00
2013,09,30,09,51,11.50
2013,09,30,09,52,12.00
2013,09,30,09,53,13.40
2013,09,30,09,54,17.50
2013,09,30,09,55,19.10
2013,09,30,09,56,21.40
2013,09,30,09,57,23.50
2013,09,30,09,58,25.40
2013,09,30,09,59,26.00
2013,09,30,10,00,26.00
2013,09,30,10,01,27.40
2013,09,30,10,02,28.00
2013,09,30,10,03,28.00
2013,09,30,10,04,27.70
2013,09,30,10,05,26.00
2013,09,30,10,06,26.00
2013,09,30,10,07,26.00
2013,09,30,10,08,25.50
2013,09,30,10,09,23.70
2013,09,30,10,10,23.00
2013,09,30,10,11,21.40
2013,09,30,10,12,19.20
2013,09,30,10,13,19.00
2013,09,30,10,14,19.00
2013,09,30,10,15,19.70
2013,09,30,10,16,21.90
2013,09,30,10,17,24.10
2013,09,30,10,18,27.00
2013,09,30,10,19,31.10
2013,09,30,10,20,38.00
2013,09,30,10,21,44.50
2013,09,30,10,22,49.90
2013,09,30,10,23,55.20
2013,09,30,10,24,58.80
2013,09,30,10,25,58.00
2013,09,30,10,26,53.00
2013,09,30,10,27,47.40
2013,09,30,10,28,41.20
2013,09,30,10,29,32.40
2013,09,30,10,30,24.50
2013,09,30,10,31,20.50
2013,09,30,10,32,19.00
2013,09,30,10,33,19.90
2013,09,30,10,34,21.00
2013,09,30,10,35,22.30
2013,09,30,10,36,24.50
2013,09,30,10,37,27.60
2013,09,30,10,38,32.00
2013,09,30,10,39,35.70
2013,09,30,10,40,40.80
2013,09,30,10,41,49.60
2013,09,30,10,42,59.30
2013,09,30,10,43,62.40
2013,09,30,10,44,59.20
2013,09,30,10,45,56.40
2013,09,30,10,46,64.20
2013,09,30,10,47,76.60
2013,09,30,10,48,83.20
2013,09,30,10,49,84.00
2013,09,30,10,50,81.00
2013,09,30,10,51,71.50
2013,09,30,10,52,64.50
2013,09,30,10,53,63.00
2013,09,30,10,54,66.30
2013,09,30,10,55,71.60
2013,09,30,10,56,73.30
2013,09,30,10,57,67.40
2013,09,30,10,58,59.10
2013,09,30,10,59,50.80
2013,09,30,11,00,48.20
2013,09,30,11,01,52.40
2013,09,30,11,02,60.90
2013,09,30,11,03,66.60
2013,09,30,11,04,64.40
2013,09,30,11,05,56.70
2013,09,30,11,06,49.50
2013,09,30,11,07,43.50
2013,09,30,11,08,38.50
2013,09,30,11,09,37.00
2013,09,30,11,10,39.10
2013,09,30,11,11,44.90
2013,09,30,11,12,50.70
2013,09,30,11,13,51.80
2013,09,30,11,14,42.00
2013,09,30,11,15,33.30
2013,09,30,11,16,28.20
2013,09,30,11,17,26.00
2013,09,30,11,18,27.40
2013,09,30,11,19,31.00
2013,09,30,11,20,36.30
2013,09,30,11,21,38.70
2013,09,30,11,22,37.00
2013,09,30,11,23,37.50
2013,09,30,11,24,39.00
2013,09,30,11,25,40.40
2013,09,30,11,26,43.20
2013,09,30,11,27,46.10
2013,09,30,11,28,48.60
2013,09,30,11,29,52.60
2013,09,30,11,30,51.40
2013,09,30,11,31,55.80
2013,09,30,11,32,64.20
2013,09,30,11,33,75.10
2013,09,30,11,34,88.70
2013,09,30,11,35,88.70
2013,09,30,11,36,78.70
2013,09,30,11,37,64.80
2013,09,30,11,38,58.20
2013,09,30,11,39,55.70
2013,09,30,11,40,55.60
2013,09,30,11,41,62.50
2013,09,30,11,42,70.20
2013,09,30,11,43,78.10
2013,09,30,11,44,91.90
2013,09,30,11,45,114.80
2013,09,30,11,46,134.80
2013,09,30,11,47,163.50
2013,09,30,11,48,177.60
2013,09,30,11,49,173.10
2013,09,30,11,50,174.40
2013,09,30,11,51,204.00
2013,09,30,11,52,226.40
2013,09,30,11,53,204.00
2013,09,30,11,54,202.00
2013,09,30,11,55,215.70
2013,09,30,11,56,194.90
2013,09,30,11,57,224.60
2013,09,30,11,58,251.10
2013,09,30,11,59,219.20
2013,09,30,12,00,194.80
2013,09,30,12,01,178.40
2013,09,30,12,02,183.00
2013,09,30,12,03,193.60
2013,09,30,12,04,198.00
2013,09,30,12,05,154.00
2013,09,30,12,06,109.70
2013,09,30,12,07,89.10
2013,09,30,12,08,87.00
2013,09,30,12,09,104.00
2013,09,30,12,10,121.30
2013,09,30,12,11,127.40
2013,09,30,12,12,131.60
2013,09,30,12,13,131.00
2013,09,30,12,14,145.10
2013,09,30,12,15,163.80
2013,09,30,12,16,177.70
2013,09,30,12,17,190.70
2013,09,30,12,18,195.00
2013,09,30,12,19,198.80
2013,09,30,12,20,194.00
2013,09,30,12,21,181.50
2013,09,30,12,22,185.40
2013,09,30,12,23,218.20
2013,09,30,12,24,239.60
2013,09,30,12,25,270.70
2013,09,30,12,26,241.10
2013,09,30,12,27,170.60
2013,09,30,12,28,144.40
2013,09,30,12,29,127.10
2013,09,30,12,30,100.50
2013,09,30,12,31,84.70
2013,09,30,12,32,76.80
2013,09,30,12,33,70.00
2013,09,30,12,34,64.50
2013,09,30,12,35,54.10
2013,09,30,12,36,38.80
2013,09,30,12,37,27.60
2013,09,30,12,38,21.10
2013,09,30,12,39,17.70
2013,09,30,12,40,16.50
2013,09,30,12,41,18.00
2013,09,30,12,42,19.40
2013,09,30,12,43,23.20
2013,09,30,12,44,28.30
2013,09,30,12,45,32.30
2013,09,30,12,46,34.70
2013,09,30,12,47,37.20
2013,09,30,12,48,39.50
2013,09,30,12,49,43.90
2013,09,30,12,50,52.50
2013,09,30,12,51,62.70
2013,09,30,12,52,71.10
2013,09,30,12,53,80.30
2013,09,30,12,54,91.20
2013,09,30,12,55,101.20
2013,09,30,12,56,112.20
2013,09,30,12,57,121.10
2013,09,30,12,58,127.90
2013,09,30,12,59,137.60
2013,09,30,13,00,143.10
2013,09,30,13,01,145.30
2013,09,30,13,02,148.20
2013,09,30,13,03,154.20
2013,09,30,13,04,169.80
2013,09,30,13,05,201.60
2013,09,30,13,06,216.50
2013,09,30,13,07,228.10
2013,09,30,13,08,251.00
2013,09,30,13,09,266.20
2013,09,30,13,10,282.30
2013,09,30,13,11,286.10
2013,09,30,13,12,269.30
2013,09,30,13,13,252.30
2013,09,30,13,14,218.00
2013,09,30,13,15,181.90
2013,09,30,13,16,151.50
2013,09,30,13,17,144.00
2013,09,30,13,18,151.50
2013,09,30,13,19,160.80
2013,09,30,13,20,168.00
2013,09,30,13,21,188.70
2013,09,30,13,22,225.90
2013,09,30,13,23,260.80
2013,09,30,13,24,269.50
2013,09,30,13,25,263.80
2013,09,30,13,26,249.60
2013,09,30,13,27,220.50
2013,09,30,13,28,190.90
2013,09,30,13,29,165.90
2013,09,30,13,30,138.90
2013,09,30,13,31,115.10
2013,09,30,13,32,98.20
2013,09,30,13,33,83.70
2013,09,30,13,34,75.50
2013,09,30,13,35,75.20
2013,09,30,13,36,76.70
2013,09,30,13,37,81.90
2013,09,30,13,38,89.30
2013,09,30,13,39,108.00
2013,09,30,13,40,134.40
2013,09,30,13,41,164.00
2013,09,30,13,42,188.30
2013,09,30,13,43,204.60
2013,09,30,13,44,211.00
2013,09,30,13,45,197.70
2013,09,30,13,46,174.00
2013,09,30,13,47,155.30
2013,09,30,13,48,145.70
2013,09,30,13,49,145.30
2013,09,30,13,50,149.00
2013,09,30,13,51,146.70
2013,09,30,13,52,134.90
2013,09,30,13,53,114.40
2013,09,30,13,54,92.60
2013,09,30,13,55,71.60
2013,09,30,13,56,63.00
2013,09,30,13,57,63.70
2013,09,30,13,58,67.90
2013,09,30,13,59,68.80
2013,09,30,14,00,63.50
2013,09,30,14,01,56.30
2013,09,30,14,02,53.30
2013,09,30,14,03,51.40
2013,09,30,14,04,50.90
2013,09,30,14,05,48.30
2013,09,30,14,06,42.40
2013,09,30,14,07,35.30
2013,09,30,14,08,30.20
2013,09,30,14,09,25.30
2013,09,30,14,10,23.00
2013,09,30,14,11,19.90
2013,09,30,14,12,20.70
2013,09,30,14,13,23.30
2013,09,30,14,14,28.90
2013,09,30,14,15,35.50
2013,09,30,14,16,45.50
2013,09,30,14,17,57.00
2013,09,30,14,18,71.50
2013,09,30,14,19,86.50
2013,09,30,14,20,98.20
2013,09,30,14,21,110.00
2013,09,30,14,22,118.00
2013,09,30,14,23,118.40
2013,09,30,14,24,120.30
2013,09,30,14,25,125.10
2013,09,30,14,26,134.90
2013,09,30,14,27,140.30
2013,09,30,14,28,134.50
2013,09,30,14,29,126.00
2013,09,30,14,30,121.10
2013,09,30,14,31,120.00
2013,09,30,14,32,119.50
2013,09,30,14,33,118.00
2013,09,30,14,34,117.00
2013,09,30,14,35,114.90
2013,09,30,14,36,113.30
2013,09,30,14,37,113.00
2013,09,30,14,38,111.20
2013,09,30,14,39,109.40
2013,09,30,14,40,113.70
2013,09,30,14,41,116.00
2013,09,30,14,42,114.80
2013,09,30,14,43,108.30
2013,09,30,14,44,101.30
2013,09,30,14,45,103.60
2013,09,30,14,46,124.00
2013,09,30,14,47,155.30
2013,09,30,14,48,168.40
2013,09,30,14,49,162.40
2013,09,30,14,50,152.00
2013,09,30,14,51,138.00
2013,09,30,14,52,123.50
2013,09,30,14,53,109.50
2013,09,30,14,54,90.30
2013,09,30,14,55,67.70
2013,09,30,14,56,48.10
2013,09,30,14,57,37.90
2013,09,30,14,58,32.70
2013,09,30,14,59,32.00
2013,09,30,15,00,32.00
2013,09,30,15,01,32.60
2013,09,30,15,02,34.40
2013,09,30,15,03,38.20
2013,09,30,15,04,39.90
2013,09,30,15,05,38.70
2013,09,30,15,06,37.00
2013,09,30,15,07,35.70
2013,09,30,15,08,32.60
2013,09,30,15,09,32.00
2013,09,30,15,10,32.00
2013,09,30,15,11,30.50
2013,09,30,15,12,30.00
2013,09,30,15,13,28.10
2013,09,30,15,14,28.30
2013,09,30,15,15,30.00
2013,09,30,15,16,30.70
2013,09,30,15,17,32.00
2013,09,30,15,18,32.00
2013,09,30,15,19,30.60
2013,09,30,15,20,30.00
2013,09,30,15,21,28.20
2013,09,30,15,22,26.00
2013,09,30,15,23,26.40
2013,09,30,15,24,29.30
2013,09,30,15,25,32.40
2013,09,30,15,26,34.00
2013,09,30,15,27,36.30
2013,09,30,15,28,39.20
2013,09,30,15,29,41.70
2013,09,30,15,30,44.00
2013,09,30,15,31,46.10
2013,09,30,15,32,47.00
2013,09,30,15,33,47.00
2013,09,30,15,34,46.50
2013,09,30,15,35,46.00
2013,09,30,15,36,48.00
2013,09,30,15,37,52.90
2013,09,30,15,38,57.50
2013,09,30,15,39,63.60
2013,09,30,15,40,74.20
2013,09,30,15,41,87.30
2013,09,30,15,42,99.90
2013,09,30,15,43,112.50
2013,09,30,15,44,122.50
2013,09,30,15,45,130.10
2013,09,30,15,46,136.10
2013,09,30,15,47,140.60
2013,09,30,15,48,136.00
2013,09,30,15,49,128.00
2013,09,30,15,50,116.80
2013,09,30,15,51,104.60
2013,09,30,15,52,94.20
2013,09,30,15,53,87.90
2013,09,30,15,54,84.50
2013,09,30,15,55,84.00
2013,09,30,15,56,81.10
2013,09,30,15,57,79.90
2013,09,30,15,58,87.00
2013,09,30,15,59,95.70
2013,09,30,16,00,97.50
2013,09,30,16,01,98.00
2013,09,30,16,02,96.00
2013,09,30,16,03,91.90
2013,09,30,16,04,84.60
2013,09,30,16,05,80.50
2013,09,30,16,06,74.70
2013,09,30,16,07,68.00
2013,09,30,16,08,60.90
2013,09,30,16,09,55.90
2013,09,30,16,10,52.00
2013,09,30,16,11,49.60
2013,09,30,16,12,47.40
2013,09,30,16,13,47.00
2013,09,30,16,14,45.70
2013,09,30,16,15,43.50
2013,09,30,16,16,41.30
2013,09,30,16,17,39.50
2013,09,30,16,18,39.00
2013,09,30,16,19,39.00
2013,09,30,16,20,37.50
2013,09,30,16,21,35.30
2013,09,30,16,22,35.00
2013,09,30,16,23,35.00
2013,09,30,16,24,35.00
2013,09,30,16,25,35.00
2013,09,30,16,26,35.00
2013,09,30,16,27,36.20
2013,09,30,16,28,38.50
2013,09,30,16,29,39.00
2013,09,30,16,30,39.90
2013,09,30,16,31,40.30
2013,09,30,16,32,42.50
2013,09,30,16,33,44.70
2013,09,30,16,34,46.00
2013,09,30,16,35,46.00
2013,09,30,16,36,43.50
2013,09,30,16,37,39.80
2013,09,30,16,38,33.80
2013,09,30,16,39,30.10
2013,09,30,16,40,29.10
2013,09,30,16,41,24.50
2013,09,30,16,42,22.20
2013,09,30,16,43,20.00
2013,09,30,16,44,18.40
2013,09,30,16,45,18.00
2013,09,30,16,46,16.40
2013,09,30,16,47,16.00
2013,09,30,16,48,18.10
2013,09,30,16,49,19.40
2013,09,30,16,50,21.60
2013,09,30,16,51,23.00
2013,09,30,16,52,24.00
2013,09,30,16,53,27.00
2013,09,30,16,54,30.90
2013,09,30,16,55,36.10
2013,09,30,16,56,41.70
2013,09,30,16,57,46.70
2013,09,30,16,58,53.30
2013,09,30,16,59,65.10
2013,09,30,17,00,84.90
2013,09,30,17,01,115.00
2013,09,30,17,02,151.20
2013,09,30,17,03,182.10
2013,09,30,17,04,203.70
2013,09,30,17,05,210.80
2013,09,30,17,06,207.20
2013,09,30,17,07,194.30
2013,09,30,17,08,179.30
2013,09,30,17,09,162.00
2013,09,30,17,10,143.30
2013,09,30,17,11,128.40
2013,09,30,17,12,115.20
2013,09,30,17,13,100.40
2013,09,30,17,14,82.10
2013,09,30,17,15,68.40
2013,09,30,17,16,61.30
2013,09,30,17,17,56.00
2013,09,30,17,18,49.70
2013,09,30,17,19,43.80
2013,09,30,17,20,39.80
2013,09,30,17,21,35.50
2013,09,30,17,22,32.80
2013,09,30,17,23,29.30
2013,09,30,17,24,24.60
2013,09,30,17,25,19.00
2013,09,30,17,26,15.00
2013,09,30,17,27,12.80
2013,09,30,17,28,11.30
2013,09,30,17,29,11.00
2013,09,30,17,30,11.00
2013,09,30,17,31,11.00
2013,09,30,17,32,11.00
2013,09,30,17,33,11.00